EN

Hourly Weather Lack

Today, 24 July, Saturday

Time Temperature Precipitation Wind Pressure Humidity
00:00 +19°C° 0 mm 1 mps 754 mmHg 76%
01:00 +19°C° 0 mm 1 mps 754 mmHg 77%
02:00 +17°C° 0 mm 0 mps 754 mmHg 78%
03:00 +17°C° 0 mm 0 mps 754 mmHg 78%
04:00 +17°C° 0 mm 0 mps 754 mmHg 79%
05:00 +17°C° 0 mm 0 mps 754 mmHg 77%
06:00 +20°C° 0 mm 1 mps 754 mmHg 75%
07:00 +21°C° 0 mm 1 mps 754 mmHg 73%
08:00 +22°C° 0 mm 1 mps 754 mmHg 70%
09:00 +23°C° 0 mm 1 mps 754 mmHg 66%
10:00 +24°C° 0 mm 1 mps 754 mmHg 63%
11:00 +24°C° 0 mm 1 mps 754 mmHg 60%
12:00 +25°C° 0 mm 1 mps 754 mmHg 56%
13:00 +26°C° 0 mm 1 mps 754 mmHg 53%
14:00 +26°C° 0 mm 1 mps 754 mmHg 51%
15:00 +26°C° 0 mm 1 mps 754 mmHg 50%
16:00 +27°C° 0 mm 1 mps 754 mmHg 48%
17:00 +25°C° 0 mm 1 mps 754 mmHg 54%
18:00 +24°C° 0 mm 2 mps 753 mmHg 59%
19:00 +23°C° 0 mm 2 mps 753 mmHg 65%
20:00 +23°C° 0 mm 2 mps 753 mmHg 65%
21:00 +21°C° 0 mm 2 mps 754 mmHg 64%
22:00 +21°C° 0 mm 2 mps 754 mmHg 64%
23:00 +20°C° 0 mm 2 mps 754 mmHg 65%

Tomorrow, 25 July, Sunday

Time Temperature Precipitation Wind Pressure Humidity
00:00 +20°C° 0 mm 2 mps 753 mmHg 66%
01:00 +20°C° 0 mm 2 mps 753 mmHg 67%
02:00 +20°C° 0 mm 3 mps 753 mmHg 67%
03:00 +20°C° 0 mm 3 mps 753 mmHg 67%
04:00 +20°C° 0 mm 3 mps 753 mmHg 68%
05:00 +20°C° 0 mm 3 mps 753 mmHg 68%
06:00 +21°C° 0 mm 3 mps 753 mmHg 69%
07:00 +21°C° 0 mm 4 mps 753 mmHg 69%
08:00 +23°C° 0 mm 4 mps 753 mmHg 63%
09:00 +26°C° 0 mm 5 mps 753 mmHg 56%
10:00 +28°C° 0 mm 5 mps 753 mmHg 49%
11:00 +29°C° 0 mm 5 mps 753 mmHg 48%
12:00 +29°C° 0 mm 4 mps 753 mmHg 48%
13:00 +29°C° 0 mm 4 mps 753 mmHg 47%
14:00 +29°C° 0 mm 3 mps 752 mmHg 48%
15:00 +29°C° 0 mm 3 mps 752 mmHg 49%
16:00 +29°C° 0 mm 2 mps 752 mmHg 50%
17:00 +28°C° 0 mm 3 mps 752 mmHg 54%
18:00 +26°C° 0 mm 3 mps 752 mmHg 58%
19:00 +25°C° 0 mm 3 mps 752 mmHg 62%
20:00 +25°C° 0 mm 3 mps 752 mmHg 61%
21:00 +24°C° 0 mm 3 mps 752 mmHg 61%
22:00 +23°C° 0 mm 4 mps 752 mmHg 60%
23:00 +23°C° 0 mm 4 mps 752 mmHg 60%

Day after tomorrow, 26 July, Monday

Time Temperature Precipitation Wind Pressure Humidity
00:00 +23°C° 0 mm 4 mps 752 mmHg 60%
01:00 +23°C° 0 mm 5 mps 752 mmHg 59%
02:00 +23°C° 0 mm 5 mps 751 mmHg 62%
03:00 +23°C° 0 mm 5 mps 751 mmHg 64%
04:00 +22°C° 0 mm 5 mps 751 mmHg 66%
05:00 +23°C° 0 mm 5 mps 751 mmHg 67%
06:00 +23°C° 0 mm 5 mps 751 mmHg 68%
07:00 +23°C° 0 mm 5 mps 751 mmHg 69%
08:00 +26°C° 0 mm 5 mps 751 mmHg 64%
09:00 +27°C° 0 mm 5 mps 751 mmHg 59%
10:00 +28°C° 0 mm 5 mps 751 mmHg 55%
11:00 +28°C° 0 mm 5 mps 751 mmHg 56%
12:00 +28°C° 0 mm 4 mps 751 mmHg 57%
13:00 +28°C° 0 mm 3 mps 751 mmHg 59%
14:00 +28°C° 0.4 mm 3 mps 751 mmHg 61%
15:00 +27°C° 0.4 mm 2 mps 751 mmHg 63%
16:00 +27°C° 0.4 mm 2 mps 751 mmHg 65%
17:00 +26°C° 0.2 mm 2 mps 751 mmHg 69%
18:00 +25°C° 0.2 mm 2 mps 750 mmHg 74%
19:00 +24°C° 0.2 mm 2 mps 750 mmHg 79%
20:00 +23°C° 0.3 mm 2 mps 750 mmHg 82%
21:00 +23°C° 0.3 mm 2 mps 751 mmHg 85%
22:00 +21°C° 0.3 mm 2 mps 751 mmHg 88%
23:00 +20°C° 0 mm 2 mps 751 mmHg 88%

27 July, Tuesday

Time Temperature Precipitation Wind Pressure Humidity
00:00 +20°C° 0 mm 2 mps 751 mmHg 88%
01:00 +20°C° 0 mm 2 mps 751 mmHg 87%
02:00 +20°C° 0 mm 2 mps 751 mmHg 87%
03:00 +20°C° 0 mm 2 mps 751 mmHg 86%
04:00 +20°C° 0 mm 2 mps 751 mmHg 85%
05:00 +21°C° 0 mm 2 mps 751 mmHg 82%
06:00 +23°C° 0 mm 1 mps 752 mmHg 79%
07:00 +24°C° 0 mm 1 mps 752 mmHg 75%
08:00 +25°C° 0 mm 1 mps 752 mmHg 75%
09:00 +25°C° 0 mm 1 mps 752 mmHg 74%
10:00 +25°C° 0 mm 2 mps 752 mmHg 74%
11:00 +26°C° 0 mm 1 mps 752 mmHg 69%
12:00 +27°C° 0 mm 1 mps 752 mmHg 63%
13:00 +28°C° 0 mm 1 mps 752 mmHg 58%
14:00 +29°C° 0 mm 1 mps 752 mmHg 55%
15:00 +29°C° 0 mm 1 mps 752 mmHg 51%
16:00 +30°C° 0 mm 2 mps 752 mmHg 48%
17:00 +28°C° 0.1 mm 1 mps 751 mmHg 55%
18:00 +27°C° 0.1 mm 1 mps 751 mmHg 62%
19:00 +25°C° 0.1 mm 1 mps 751 mmHg 69%
20:00 +24°C° 0.6 mm 2 mps 751 mmHg 75%
21:00 +23°C° 0.6 mm 2 mps 751 mmHg 80%
22:00 +20°C° 0.6 mm 2 mps 751 mmHg 85%
23:00 +20°C° 0.4 mm 2 mps 751 mmHg 87%

28 July, Wednesday

Time Temperature Precipitation Wind Pressure Humidity
00:00 +20°C° 0.4 mm 2 mps 751 mmHg 89%
01:00 +20°C° 0.4 mm 2 mps 751 mmHg 91%
02:00 +20°C° 0 mm 2 mps 751 mmHg 91%
03:00 +20°C° 0 mm 2 mps 750 mmHg 90%
04:00 +20°C° 0 mm 2 mps 750 mmHg 90%
05:00 +20°C° 0 mm 3 mps 751 mmHg 87%
06:00 +21°C° 0 mm 3 mps 751 mmHg 84%
07:00 +21°C° 0 mm 3 mps 751 mmHg 82%
08:00 +22°C° 0.1 mm 3 mps 751 mmHg 81%
09:00 +22°C° 0.1 mm 3 mps 751 mmHg 81%
10:00 +22°C° 0.1 mm 3 mps 751 mmHg 80%
11:00 +23°C° 0.1 mm 4 mps 751 mmHg 73%
12:00 +26°C° 0.1 mm 4 mps 751 mmHg 66%
13:00 +27°C° 0.1 mm 4 mps 751 mmHg 59%
14:00 +27°C° 0 mm 4 mps 751 mmHg 58%
15:00 +27°C° 0 mm 5 mps 752 mmHg 57%
16:00 +27°C° 0 mm 5 mps 752 mmHg 56%
17:00 +26°C° 0.1 mm 4 mps 752 mmHg 61%
18:00 +25°C° 0.1 mm 3 mps 752 mmHg 65%
19:00 +24°C° 0.1 mm 3 mps 752 mmHg 70%
20:00 +22°C° 0 mm 3 mps 752 mmHg 71%
21:00 +21°C° 0 mm 3 mps 752 mmHg 72%
22:00 +20°C° 0 mm 3 mps 753 mmHg 74%
23:00 +20°C° 0 mm 3 mps 753 mmHg 77%

29 July, Thursday

Time Temperature Precipitation Wind Pressure Humidity
00:00 +19°C° 0 mm 2 mps 753 mmHg 79%
01:00 +18°C° 0 mm 2 mps 753 mmHg 82%
02:00 +18°C° 0 mm 2 mps 753 mmHg 83%
03:00 +18°C° 0 mm 2 mps 753 mmHg 83%
04:00 +18°C° 0 mm 2 mps 753 mmHg 83%
05:00 +19°C° 0 mm 2 mps 753 mmHg 78%
06:00 +21°C° 0 mm 2 mps 754 mmHg 72%
07:00 +23°C° 0 mm 2 mps 754 mmHg 67%
08:00 +24°C° 0 mm 3 mps 754 mmHg 61%
09:00 +26°C° 0 mm 3 mps 754 mmHg 56%
10:00 +27°C° 0 mm 3 mps 754 mmHg 50%
11:00 +28°C° 0 mm 3 mps 754 mmHg 48%
12:00 +29°C° 0 mm 4 mps 754 mmHg 45%
13:00 +29°C° 0 mm 4 mps 753 mmHg 43%
14:00 +29°C° 0 mm 3 mps 753 mmHg 47%
15:00 +28°C° 0 mm 3 mps 753 mmHg 50%
16:00 +27°C° 0 mm 2 mps 753 mmHg 54%
17:00 +27°C° 0 mm 2 mps 753 mmHg 57%
18:00 +26°C° 0 mm 1 mps 753 mmHg 60%
19:00 +25°C° 0 mm 1 mps 753 mmHg 62%
20:00 +25°C° 0 mm 2 mps 752 mmHg 61%
21:00 +24°C° 0 mm 2 mps 752 mmHg 61%
22:00 +24°C° 0 mm 3 mps 752 mmHg 60%
23:00 +24°C° 0 mm 3 mps 752 mmHg 61%
Show more